sat.trackr.live / text

‹ back to catalog

STARLINK-31454

NORAD 59014 · 2024-036S

PAYLOAD ACTIVE UNKNOWN

§ Identity

Operator
Country
US
Launch date
2024-02-23
Launch site
AFWTR
Launch vehicle
Mass (kg)
RCS (m²)

Purposes: comms

External: N2YO · Heavens-Above · Gunter

§ Orbital elements

Epoch: 2026-05-25T04:51:23.943744Z

Period
94.11 min
Inclination
53.1624°
Eccentricity
0.0001471
Mean motion
15.30169757 rev/d
Perigee alt
474.3 km
Apogee alt
476.3 km
Semi-major
6,853.4 km
B*
-1.0131e-4
RAAN
83.0169°
Arg perigee
111.9550°
Mean anomaly
248.1607°
Rev number
12,703

§ Raw data

STARLINK-314541 59014U 24036S   26145.20236046 -.00003356  00000+0 -10131-3 0  99922 59014  53.1624  83.0169 0001471 111.9550 248.1607 15.30169757127039

JSON: /api/v1/satellites/59014 · /tle

For live sub-satellite position, see the globe view (requires WebGL).

§ Visibility from observer

Set your observer location to see the next 7 days of passes ≥ 10°. The values pass through the URL so the page stays shareable.

No JS? Fill the form by hand. The geolocation button needs JavaScript.